iso_date,epoch_date,Year,Hour,Min,DOY,POS_DOY,Lat,Lon,BP,Ts,Ta,has_bp,has_ts,has_ta,BuoyID,Buoy_Type,Buoy_Owner,Logistics,Hemisphere
2018-08-10T19:00:28Z,1533927629,2018,19,0,222.792,222.792,57.012,-5.922,1017.0,14.5,-999.0,yes,yes,no,300234063739730,BD2GI,AOML,CCGS_HUDSON,North
2018-08-10T19:59:31Z,1533931171,2018,20,0,222.833,222.833,57.006,-5.93,1017.6,14.52,-999.0,yes,yes,no,300234063739730,BD2GI,AOML,CCGS_HUDSON,North
2018-08-10T21:00:00Z,1533934800,2018,21,0,222.875,222.875,56.999,-5.941,1018.2,14.51,-999.0,yes,yes,no,300234063739730,BD2GI,AOML,CCGS_HUDSON,North
2018-08-10T22:00:28Z,1533938429,2018,22,0,222.917,222.917,56.994,-5.948,1018.7,14.45,-999.0,yes,yes,no,300234063739730,BD2GI,AOML,CCGS_HUDSON,North
2018-08-10T22:59:31Z,1533941971,2018,23,0,222.958,222.958,56.992,-5.952,1019.0,14.4,-999.0,yes,yes,no,300234063739730,BD2GI,AOML,CCGS_HUDSON,North
2018-08-11T00:00:00Z,1533945600,2018,0,0,223.0,223.0,56.992,-5.952,1019.2,14.34,-999.0,yes,yes,no,300234063739730,BD2GI,AOML,CCGS_HUDSON,North
2018-08-11T01:00:28Z,1533949229,2018,1,0,223.042,223.042,56.994,-5.944,1019.1,14.29,-999.0,yes,yes,no,300234063739730,BD2GI,AOML,CCGS_HUDSON,North
2018-08-11T01:59:31Z,1533952771,2018,2,0,223.083,223.083,56.998,-5.931,1018.7,14.26,-999.0,yes,yes,no,300234063739730,BD2GI,AOML,CCGS_HUDSON,North
2018-08-11T03:00:00Z,1533956400,2018,3,0,223.125,223.125,57.001,-5.916,1018.3,14.23,-999.0,yes,yes,no,300234063739730,BD2GI,AOML,CCGS_HUDSON,North
2018-08-11T04:00:28Z,1533960029,2018,4,0,223.167,223.167,57.004,-5.905,1018.4,14.19,-999.0,yes,yes,no,300234063739730,BD2GI,AOML,CCGS_HUDSON,North
2018-08-11T04:59:31Z,1533963571,2018,5,0,223.208,223.208,57.006,-5.901,1018.3,14.2,-999.0,yes,yes,no,300234063739730,BD2GI,AOML,CCGS_HUDSON,North
2018-08-11T06:00:00Z,1533967200,2018,6,0,223.25,223.25,57.008,-5.899,1018.4,14.19,-999.0,yes,yes,no,300234063739730,BD2GI,AOML,CCGS_HUDSON,North
2018-08-11T07:00:28Z,1533970829,2018,7,0,223.292,223.292,57.01,-5.901,1018.4,14.18,-999.0,yes,yes,no,300234063739730,BD2GI,AOML,CCGS_HUDSON,North
2018-08-11T07:59:31Z,1533974371,2018,8,0,223.333,223.333,57.011,-5.908,1018.5,14.2,-999.0,yes,yes,no,300234063739730,BD2GI,AOML,CCGS_HUDSON,North
2018-08-11T09:00:00Z,1533978000,2018,9,0,223.375,223.375,57.01,-5.918,1018.4,14.2,-999.0,yes,yes,no,300234063739730,BD2GI,AOML,CCGS_HUDSON,North
2018-08-11T10:00:28Z,1533981629,2018,10,0,223.417,223.417,57.006,-5.934,1018.2,14.3,-999.0,yes,yes,no,300234063739730,BD2GI,AOML,CCGS_HUDSON,North
2018-08-11T10:59:31Z,1533985171,2018,11,0,223.458,223.458,57.004,-5.947,1017.9,14.46,-999.0,yes,yes,no,300234063739730,BD2GI,AOML,CCGS_HUDSON,North
2018-08-11T12:00:00Z,1533988800,2018,12,0,223.5,223.5,57.002,-5.955,1017.6,14.67,-999.0,yes,yes,no,300234063739730,BD2GI,AOML,CCGS_HUDSON,North
2018-08-11T13:00:28Z,1533992429,2018,13,0,223.542,223.542,57.002,-5.958,1017.3,14.62,-999.0,yes,yes,no,300234063739730,BD2GI,AOML,CCGS_HUDSON,North
2018-08-11T13:59:31Z,1533995971,2018,14,0,223.583,223.583,57.003,-5.958,1016.7,14.79,-999.0,yes,yes,no,300234063739730,BD2GI,AOML,CCGS_HUDSON,North
2018-08-11T15:00:00Z,1533999600,2018,15,0,223.625,223.625,57.004,-5.959,1015.6,14.71,-999.0,yes,yes,no,300234063739730,BD2GI,AOML,CCGS_HUDSON,North
2018-08-11T16:00:28Z,1534003229,2018,16,0,223.667,223.667,57.004,-5.962,1014.8,14.73,-999.0,yes,yes,no,300234063739730,BD2GI,AOML,CCGS_HUDSON,North
2018-08-11T16:59:31Z,1534006771,2018,17,0,223.708,223.708,57.002,-5.97,1014.1,14.7,-999.0,yes,yes,no,300234063739730,BD2GI,AOML,CCGS_HUDSON,North
2018-08-11T18:00:00Z,1534010400,2018,18,0,223.75,223.75,57.0,-5.98,1013.5,14.7,-999.0,yes,yes,no,300234063739730,BD2GI,AOML,CCGS_HUDSON,North
2018-08-11T19:00:28Z,1534014029,2018,19,0,223.792,223.792,56.998,-5.999,1013.0,14.57,-999.0,yes,yes,no,300234063739730,BD2GI,AOML,CCGS_HUDSON,North
2018-08-11T19:59:31Z,1534017571,2018,20,0,223.833,223.833,56.997,-6.021,1012.5,14.43,-999.0,yes,yes,no,300234063739730,BD2GI,AOML,CCGS_HUDSON,North
2018-08-11T21:00:00Z,1534021200,2018,21,0,223.875,223.875,56.997,-6.046,1012.0,14.38,-999.0,yes,yes,no,300234063739730,BD2GI,AOML,CCGS_HUDSON,North
2018-08-11T22:00:28Z,1534024829,2018,22,0,223.917,223.917,56.999,-6.07,1011.4,14.32,-999.0,yes,yes,no,300234063739730,BD2GI,AOML,CCGS_HUDSON,North
2018-08-11T22:59:31Z,1534028371,2018,23,0,223.958,223.958,57.0,-6.091,1010.9,14.34,-999.0,yes,yes,no,300234063739730,BD2GI,AOML,CCGS_HUDSON,North
2018-08-12T00:00:00Z,1534032000,2018,0,0,224.0,224.0,57.002,-6.108,1010.5,14.34,-999.0,yes,yes,no,300234063739730,BD2GI,AOML,CCGS_HUDSON,North
2018-08-12T01:00:28Z,1534035629,2018,1,0,224.042,224.042,57.005,-6.12,1009.9,14.31,-999.0,yes,yes,no,300234063739730,BD2GI,AOML,CCGS_HUDSON,North
2018-08-12T01:59:31Z,1534039171,2018,2,0,224.083,224.083,57.011,-6.126,1009.1,14.28,-999.0,yes,yes,no,300234063739730,BD2GI,AOML,CCGS_HUDSON,North
2018-08-12T03:00:00Z,1534042800,2018,3,0,224.125,224.125,57.017,-6.128,1008.2,14.25,-999.0,yes,yes,no,300234063739730,BD2GI,AOML,CCGS_HUDSON,North
2018-08-12T04:00:28Z,1534046429,2018,4,0,224.167,224.167,57.026,-6.131,1007.5,14.21,-999.0,yes,yes,no,300234063739730,BD2GI,AOML,CCGS_HUDSON,North
2018-08-12T04:59:31Z,1534049971,2018,5,0,224.208,224.208,57.034,-6.136,1007.0,14.18,-999.0,yes,yes,no,300234063739730,BD2GI,AOML,CCGS_HUDSON,North
2018-08-12T06:00:00Z,1534053600,2018,6,0,224.25,224.25,57.043,-6.144,1006.9,14.14,-999.0,yes,yes,no,300234063739730,BD2GI,AOML,CCGS_HUDSON,North
2018-08-12T07:00:28Z,1534057229,2018,7,0,224.292,224.292,57.05,-6.15,1007.0,14.14,-999.0,yes,yes,no,300234063739730,BD2GI,AOML,CCGS_HUDSON,North
2018-08-12T07:59:31Z,1534060771,2018,8,0,224.333,224.333,57.055,-6.159,1007.1,14.13,-999.0,yes,yes,no,300234063739730,BD2GI,AOML,CCGS_HUDSON,North
2018-08-12T09:00:00Z,1534064400,2018,9,0,224.375,224.375,57.058,-6.176,1007.2,14.12,-999.0,yes,yes,no,300234063739730,BD2GI,AOML,CCGS_HUDSON,North
2018-08-12T10:00:28Z,1534068029,2018,10,0,224.417,224.417,57.061,-6.191,1007.4,14.11,-999.0,yes,yes,no,300234063739730,BD2GI,AOML,CCGS_HUDSON,North
2018-08-12T10:59:31Z,1534071571,2018,11,0,224.458,224.458,57.061,-6.2,1007.7,14.14,-999.0,yes,yes,no,300234063739730,BD2GI,AOML,CCGS_HUDSON,North
2018-08-12T12:00:00Z,1534075200,2018,12,0,224.5,224.5,57.063,-6.203,1007.8,14.12,-999.0,yes,yes,no,300234063739730,BD2GI,AOML,CCGS_HUDSON,North
2018-08-12T13:00:28Z,1534078829,2018,13,0,224.542,224.542,57.067,-6.205,1008.0,14.17,-999.0,yes,yes,no,300234063739730,BD2GI,AOML,CCGS_HUDSON,North
2018-08-12T13:59:31Z,1534082371,2018,14,0,224.583,224.583,57.068,-6.206,1008.0,14.03,-999.0,yes,yes,no,300234063739730,BD2GI,AOML,CCGS_HUDSON,North
2018-08-12T15:00:00Z,1534086000,2018,15,0,224.625,224.625,57.069,-6.208,1007.7,14.04,-999.0,yes,yes,no,300234063739730,BD2GI,AOML,CCGS_HUDSON,North
2018-08-12T16:00:28Z,1534089629,2018,16,0,224.667,224.667,57.071,-6.213,1007.3,14.0,-999.0,yes,yes,no,300234063739730,BD2GI,AOML,CCGS_HUDSON,North
2018-08-12T16:59:31Z,1534093171,2018,17,0,224.708,224.708,57.074,-6.22,1006.9,13.97,-999.0,yes,yes,no,300234063739730,BD2GI,AOML,CCGS_HUDSON,North
2018-08-12T18:00:00Z,1534096800,2018,18,0,224.75,224.75,57.078,-6.229,1006.9,13.99,-999.0,yes,yes,no,300234063739730,BD2GI,AOML,CCGS_HUDSON,North
2018-08-12T19:00:28Z,1534100429,2018,19,0,224.792,224.792,57.083,-6.239,1006.9,13.99,-999.0,yes,yes,no,300234063739730,BD2GI,AOML,CCGS_HUDSON,North
2018-08-12T19:59:31Z,1534103971,2018,20,0,224.833,224.833,57.087,-6.249,1007.0,13.92,-999.0,yes,yes,no,300234063739730,BD2GI,AOML,CCGS_HUDSON,North
2018-08-12T21:00:00Z,1534107600,2018,21,0,224.875,224.875,57.092,-6.255,1007.2,13.9,-999.0,yes,yes,no,300234063739730,BD2GI,AOML,CCGS_HUDSON,North
2018-08-12T22:00:28Z,1534111229,2018,22,0,224.917,224.917,57.092,-6.258,1007.4,13.91,-999.0,yes,yes,no,300234063739730,BD2GI,AOML,CCGS_HUDSON,North
2018-08-12T22:59:31Z,1534114771,2018,23,0,224.958,224.958,57.089,-6.26,1007.5,13.91,-999.0,yes,yes,no,300234063739730,BD2GI,AOML,CCGS_HUDSON,North
2018-08-13T00:00:00Z,1534118400,2018,0,0,225.0,225.0,57.086,-6.262,1007.6,13.88,-999.0,yes,yes,no,300234063739730,BD2GI,AOML,CCGS_HUDSON,North
2018-08-13T01:00:28Z,1534122029,2018,1,0,225.042,225.042,57.083,-6.261,1007.5,13.83,-999.0,yes,yes,no,300234063739730,BD2GI,AOML,CCGS_HUDSON,North
2018-08-13T01:59:31Z,1534125571,2018,2,0,225.083,225.083,57.08,-6.26,1007.4,13.86,-999.0,yes,yes,no,300234063739730,BD2GI,AOML,CCGS_HUDSON,North
2018-08-13T03:00:00Z,1534129200,2018,3,0,225.125,225.125,57.078,-6.258,1007.3,13.85,-999.0,yes,yes,no,300234063739730,BD2GI,AOML,CCGS_HUDSON,North
2018-08-13T04:00:28Z,1534132829,2018,4,0,225.167,225.167,57.08,-6.262,1007.0,13.85,-999.0,yes,yes,no,300234063739730,BD2GI,AOML,CCGS_HUDSON,North
2018-08-13T04:59:31Z,1534136371,2018,5,0,225.208,225.208,57.084,-6.27,1006.8,13.83,-999.0,yes,yes,no,300234063739730,BD2GI,AOML,CCGS_HUDSON,North
2018-08-13T06:00:00Z,1534140000,2018,6,0,225.25,225.25,57.088,-6.28,1007.1,13.8,-999.0,yes,yes,no,300234063739730,BD2GI,AOML,CCGS_HUDSON,North
2018-08-13T07:00:28Z,1534143629,2018,7,0,225.292,225.292,57.091,-6.294,1007.4,13.79,-999.0,yes,yes,no,300234063739730,BD2GI,AOML,CCGS_HUDSON,North
2018-08-13T07:59:31Z,1534147171,2018,8,0,225.333,225.333,57.098,-6.309,1007.8,13.78,-999.0,yes,yes,no,300234063739730,BD2GI,AOML,CCGS_HUDSON,North
2018-08-13T09:00:00Z,1534150800,2018,9,0,225.375,225.375,57.104,-6.326,1007.8,13.82,-999.0,yes,yes,no,300234063739730,BD2GI,AOML,CCGS_HUDSON,North
2018-08-13T10:00:28Z,1534154429,2018,10,0,225.417,225.417,57.111,-6.337,1008.2,13.88,-999.0,yes,yes,no,300234063739730,BD2GI,AOML,CCGS_HUDSON,North
2018-08-13T10:59:31Z,1534157971,2018,11,0,225.458,225.458,57.115,-6.344,1008.6,14.01,-999.0,yes,yes,no,300234063739730,BD2GI,AOML,CCGS_HUDSON,North
2018-08-13T12:00:00Z,1534161600,2018,12,0,225.5,225.5,57.115,-6.344,1009.0,14.01,-999.0,yes,yes,no,300234063739730,BD2GI,AOML,CCGS_HUDSON,North
2018-08-13T13:00:28Z,1534165229,2018,13,0,225.542,225.542,57.113,-6.339,1009.3,14.01,-999.0,yes,yes,no,300234063739730,BD2GI,AOML,CCGS_HUDSON,North
2018-08-13T13:59:31Z,1534168771,2018,14,0,225.583,225.583,57.11,-6.33,1009.5,14.1,-999.0,yes,yes,no,300234063739730,BD2GI,AOML,CCGS_HUDSON,North
2018-08-13T15:00:00Z,1534172400,2018,15,0,225.625,225.625,57.107,-6.328,1009.6,14.18,-999.0,yes,yes,no,300234063739730,BD2GI,AOML,CCGS_HUDSON,North
2018-08-13T16:00:28Z,1534176029,2018,16,0,225.667,225.667,57.109,-6.335,1009.3,14.34,-999.0,yes,yes,no,300234063739730,BD2GI,AOML,CCGS_HUDSON,North
2018-08-13T16:59:31Z,1534179571,2018,17,0,225.708,225.708,57.118,-6.34,1009.3,14.22,-999.0,yes,yes,no,300234063739730,BD2GI,AOML,CCGS_HUDSON,North
2018-08-13T18:00:00Z,1534183200,2018,18,0,225.75,225.75,57.127,-6.346,1009.0,14.23,-999.0,yes,yes,no,300234063739730,BD2GI,AOML,CCGS_HUDSON,North
2018-08-13T19:00:28Z,1534186829,2018,19,0,225.792,225.792,57.138,-6.356,1008.9,14.22,-999.0,yes,yes,no,300234063739730,BD2GI,AOML,CCGS_HUDSON,North
2018-08-13T19:59:31Z,1534190371,2018,20,0,225.833,225.833,57.148,-6.373,1009.2,14.2,-999.0,yes,yes,no,300234063739730,BD2GI,AOML,CCGS_HUDSON,North
2018-08-13T21:00:00Z,1534194000,2018,21,0,225.875,225.875,57.16,-6.387,1009.5,14.21,-999.0,yes,yes,no,300234063739730,BD2GI,AOML,CCGS_HUDSON,North
2018-08-13T22:00:28Z,1534197629,2018,22,0,225.917,225.917,57.171,-6.398,1009.6,14.19,-999.0,yes,yes,no,300234063739730,BD2GI,AOML,CCGS_HUDSON,North
2018-08-13T22:59:31Z,1534201171,2018,23,0,225.958,225.958,57.181,-6.406,1009.7,14.13,-999.0,yes,yes,no,300234063739730,BD2GI,AOML,CCGS_HUDSON,North
2018-08-14T00:00:00Z,1534204800,2018,0,0,226.0,226.0,57.187,-6.409,1009.8,14.08,-999.0,yes,yes,no,300234063739730,BD2GI,AOML,CCGS_HUDSON,North
2018-08-14T01:00:28Z,1534208429,2018,1,0,226.042,226.042,57.192,-6.411,1009.7,14.08,-999.0,yes,yes,no,300234063739730,BD2GI,AOML,CCGS_HUDSON,North
2018-08-14T01:59:31Z,1534211971,2018,2,0,226.083,226.083,57.197,-6.413,1009.6,14.06,-999.0,yes,yes,no,300234063739730,BD2GI,AOML,CCGS_HUDSON,North
2018-08-14T03:00:00Z,1534215600,2018,3,0,226.125,226.125,57.203,-6.416,1009.5,14.06,-999.0,yes,yes,no,300234063739730,BD2GI,AOML,CCGS_HUDSON,North
2018-08-14T04:00:28Z,1534219229,2018,4,0,226.167,226.167,57.212,-6.422,1008.9,14.07,-999.0,yes,yes,no,300234063739730,BD2GI,AOML,CCGS_HUDSON,North
2018-08-14T04:59:31Z,1534222771,2018,5,0,226.208,226.208,57.224,-6.43,1008.7,14.07,-999.0,yes,yes,no,300234063739730,BD2GI,AOML,CCGS_HUDSON,North
2018-08-14T06:00:00Z,1534226400,2018,6,0,226.25,226.25,57.238,-6.438,1008.5,14.07,-999.0,yes,yes,no,300234063739730,BD2GI,AOML,CCGS_HUDSON,North
2018-08-14T07:00:28Z,1534230029,2018,7,0,226.292,226.292,57.254,-6.447,1008.4,14.07,-999.0,yes,yes,no,300234063739730,BD2GI,AOML,CCGS_HUDSON,North
2018-08-14T07:59:31Z,1534233571,2018,8,0,226.333,226.333,57.266,-6.461,1008.0,14.07,-999.0,yes,yes,no,300234063739730,BD2GI,AOML,CCGS_HUDSON,North
2018-08-14T09:00:00Z,1534237200,2018,9,0,226.375,226.375,57.272,-6.466,1007.9,14.06,-999.0,yes,yes,no,300234063739730,BD2GI,AOML,CCGS_HUDSON,North
2018-08-14T10:00:28Z,1534240829,2018,10,0,226.417,226.417,57.274,-6.465,1007.8,14.09,-999.0,yes,yes,no,300234063739730,BD2GI,AOML,CCGS_HUDSON,North
2018-08-14T10:59:31Z,1534244371,2018,11,0,226.458,226.458,57.269,-6.465,1007.6,14.11,-999.0,yes,yes,no,300234063739730,BD2GI,AOML,CCGS_HUDSON,North
2018-08-14T12:00:00Z,1534248000,2018,12,0,226.5,226.5,57.265,-6.466,1007.8,14.09,-999.0,yes,yes,no,300234063739730,BD2GI,AOML,CCGS_HUDSON,North
2018-08-14T13:00:28Z,1534251629,2018,13,0,226.542,226.542,57.258,-6.463,1008.3,14.12,-999.0,yes,yes,no,300234063739730,BD2GI,AOML,CCGS_HUDSON,North
2018-08-14T13:59:31Z,1534255171,2018,14,0,226.583,226.583,57.25,-6.452,1009.1,14.14,-999.0,yes,yes,no,300234063739730,BD2GI,AOML,CCGS_HUDSON,North
2018-08-14T15:00:00Z,1534258800,2018,15,0,226.625,226.625,57.242,-6.44,1009.3,14.13,-999.0,yes,yes,no,300234063739730,BD2GI,AOML,CCGS_HUDSON,North
2018-08-14T16:00:28Z,1534262429,2018,16,0,226.667,226.667,57.237,-6.432,1009.5,14.15,-999.0,yes,yes,no,300234063739730,BD2GI,AOML,CCGS_HUDSON,North
2018-08-14T16:59:31Z,1534265971,2018,17,0,226.708,226.708,57.237,-6.428,1009.4,14.11,-999.0,yes,yes,no,300234063739730,BD2GI,AOML,CCGS_HUDSON,North
2018-08-14T18:00:00Z,1534269600,2018,18,0,226.75,226.75,57.242,-6.433,1009.6,14.12,-999.0,yes,yes,no,300234063739730,BD2GI,AOML,CCGS_HUDSON,North
2018-08-14T19:00:28Z,1534273229,2018,19,0,226.792,226.792,57.251,-6.437,1009.6,14.11,-999.0,yes,yes,no,300234063739730,BD2GI,AOML,CCGS_HUDSON,North
2018-08-14T19:59:31Z,1534276771,2018,20,0,226.833,226.833,57.257,-6.446,1009.5,14.09,-999.0,yes,yes,no,300234063739730,BD2GI,AOML,CCGS_HUDSON,North
2018-08-14T21:00:00Z,1534280400,2018,21,0,226.875,226.875,57.263,-6.459,1009.0,14.04,-999.0,yes,yes,no,300234063739730,BD2GI,AOML,CCGS_HUDSON,North
2018-08-14T22:00:28Z,1534284029,2018,22,0,226.917,226.917,57.268,-6.467,1008.6,14.08,-999.0,yes,yes,no,300234063739730,BD2GI,AOML,CCGS_HUDSON,North
2018-08-14T22:59:31Z,1534287571,2018,23,0,226.958,226.958,57.271,-6.467,1008.1,14.08,-999.0,yes,yes,no,300234063739730,BD2GI,AOML,CCGS_HUDSON,North
2018-08-15T00:00:00Z,1534291200,2018,0,0,227.0,227.0,57.269,-6.467,1007.8,14.07,-999.0,yes,yes,no,300234063739730,BD2GI,AOML,CCGS_HUDSON,North
2018-08-15T01:00:28Z,1534294829,2018,1,0,227.042,227.042,57.266,-6.466,1007.2,14.05,-999.0,yes,yes,no,300234063739730,BD2GI,AOML,CCGS_HUDSON,North
2018-08-15T01:59:31Z,1534298371,2018,2,0,227.083,227.083,57.26,-6.46,1006.7,14.05,-999.0,yes,yes,no,300234063739730,BD2GI,AOML,CCGS_HUDSON,North
2018-08-15T03:00:00Z,1534302000,2018,3,0,227.125,227.125,57.253,-6.453,1006.3,14.07,-999.0,yes,yes,no,300234063739730,BD2GI,AOML,CCGS_HUDSON,North
2018-08-15T04:00:28Z,1534305629,2018,4,0,227.167,227.167,57.249,-6.449,1005.7,14.07,-999.0,yes,yes,no,300234063739730,BD2GI,AOML,CCGS_HUDSON,North
2018-08-15T04:59:31Z,1534309171,2018,5,0,227.208,227.208,57.251,-6.45,1005.6,14.07,-999.0,yes,yes,no,300234063739730,BD2GI,AOML,CCGS_HUDSON,North
2018-08-15T06:00:00Z,1534312800,2018,6,0,227.25,227.25,57.257,-6.455,1005.8,14.06,-999.0,yes,yes,no,300234063739730,BD2GI,AOML,CCGS_HUDSON,North
2018-08-15T07:00:28Z,1534316429,2018,7,0,227.292,227.292,57.27,-6.464,1005.6,14.05,-999.0,yes,yes,no,300234063739730,BD2GI,AOML,CCGS_HUDSON,North
2018-08-15T07:59:31Z,1534319971,2018,8,0,227.333,227.333,57.279,-6.467,1005.4,14.03,-999.0,yes,yes,no,300234063739730,BD2GI,AOML,CCGS_HUDSON,North
2018-08-15T09:00:00Z,1534323600,2018,9,0,227.375,227.375,57.28,-6.467,1005.2,14.08,-999.0,yes,yes,no,300234063739730,BD2GI,AOML,CCGS_HUDSON,North
2018-08-15T10:00:28Z,1534327229,2018,10,0,227.417,227.417,57.28,-6.467,1005.1,14.1,-999.0,yes,yes,no,300234063739730,BD2GI,AOML,CCGS_HUDSON,North
2018-08-15T10:59:31Z,1534330771,2018,11,0,227.458,227.458,57.28,-6.467,1004.8,14.12,-999.0,yes,yes,no,300234063739730,BD2GI,AOML,CCGS_HUDSON,North
2018-08-15T12:00:00Z,1534334400,2018,12,0,227.5,227.5,57.28,-6.467,1004.9,14.08,-999.0,yes,yes,no,300234063739730,BD2GI,AOML,CCGS_HUDSON,North
2018-08-15T13:00:28Z,1534338029,2018,13,0,227.542,227.542,57.28,-6.467,1004.6,14.07,-999.0,yes,yes,no,300234063739730,BD2GI,AOML,CCGS_HUDSON,North
2018-08-15T13:59:31Z,1534341571,2018,14,0,227.583,227.583,57.28,-6.467,1004.1,14.05,-999.0,yes,yes,no,300234063739730,BD2GI,AOML,CCGS_HUDSON,North
2018-08-15T15:00:00Z,1534345200,2018,15,0,227.625,227.625,57.28,-6.467,1003.5,14.04,-999.0,yes,yes,no,300234063739730,BD2GI,AOML,CCGS_HUDSON,North
2018-08-15T16:00:28Z,1534348829,2018,16,0,227.667,227.667,57.281,-6.467,1002.9,14.04,-999.0,yes,yes,no,300234063739730,BD2GI,AOML,CCGS_HUDSON,North
2018-08-15T16:59:31Z,1534352371,2018,17,0,227.708,227.708,57.284,-6.466,1002.0,14.06,-999.0,yes,yes,no,300234063739730,BD2GI,AOML,CCGS_HUDSON,North
2018-08-15T18:00:00Z,1534356000,2018,18,0,227.75,227.75,57.285,-6.464,1002.2,14.07,-999.0,yes,yes,no,300234063739730,BD2GI,AOML,CCGS_HUDSON,North
2018-08-15T19:00:28Z,1534359629,2018,19,0,227.792,227.792,57.286,-6.463,1002.5,14.1,-999.0,yes,yes,no,300234063739730,BD2GI,AOML,CCGS_HUDSON,North
2018-08-15T19:59:31Z,1534363171,2018,20,0,227.833,227.833,57.286,-6.463,1002.3,14.09,-999.0,yes,yes,no,300234063739730,BD2GI,AOML,CCGS_HUDSON,North
2018-08-15T21:00:00Z,1534366800,2018,21,0,227.875,227.875,57.286,-6.462,1002.7,14.05,-999.0,yes,yes,no,300234063739730,BD2GI,AOML,CCGS_HUDSON,North
2018-08-15T22:00:28Z,1534370429,2018,22,0,227.917,227.917,57.286,-6.459,1002.5,13.98,-999.0,yes,yes,no,300234063739730,BD2GI,AOML,CCGS_HUDSON,North
2018-08-15T22:59:31Z,1534373971,2018,23,0,227.958,227.958,57.286,-6.459,1002.2,13.56,-999.0,yes,yes,no,300234063739730,BD2GI,AOML,CCGS_HUDSON,North
2018-08-16T00:00:00Z,1534377600,2018,0,0,228.0,228.0,57.286,-6.459,1002.1,12.53,-999.0,yes,yes,no,300234063739730,BD2GI,AOML,CCGS_HUDSON,North
2018-08-16T01:00:28Z,1534381229,2018,1,0,228.042,228.042,57.286,-6.459,1001.9,12.38,-999.0,yes,yes,no,300234063739730,BD2GI,AOML,CCGS_HUDSON,North
2018-08-16T01:59:31Z,1534384771,2018,2,0,228.083,228.083,57.286,-6.459,1001.4,12.32,-999.0,yes,yes,no,300234063739730,BD2GI,AOML,CCGS_HUDSON,North
2018-08-16T03:00:00Z,1534388400,2018,3,0,228.125,228.125,57.286,-6.459,1001.1,12.36,-999.0,yes,yes,no,300234063739730,BD2GI,AOML,CCGS_HUDSON,North
2018-08-16T04:00:28Z,1534392029,2018,4,0,228.167,228.167,57.286,-6.459,1000.9,12.3,-999.0,yes,yes,no,300234063739730,BD2GI,AOML,CCGS_HUDSON,North
2018-08-16T04:59:31Z,1534395571,2018,5,0,228.208,228.208,57.286,-6.459,1000.6,12.19,-999.0,yes,yes,no,300234063739730,BD2GI,AOML,CCGS_HUDSON,North
2018-08-16T06:00:00Z,1534399200,2018,6,0,228.25,228.25,57.286,-6.459,1001.0,12.09,-999.0,yes,yes,no,300234063739730,BD2GI,AOML,CCGS_HUDSON,North
2018-08-16T07:00:28Z,1534402829,2018,7,0,228.292,228.292,57.286,-6.459,1001.2,12.1,-999.0,yes,yes,no,300234063739730,BD2GI,AOML,CCGS_HUDSON,North
2018-08-16T07:59:31Z,1534406371,2018,8,0,228.333,228.333,57.286,-6.459,1001.5,12.39,-999.0,yes,yes,no,300234063739730,BD2GI,AOML,CCGS_HUDSON,North
2018-08-16T09:00:00Z,1534410000,2018,9,0,228.375,228.375,57.286,-6.459,1001.9,13.45,-999.0,yes,yes,no,300234063739730,BD2GI,AOML,CCGS_HUDSON,North
2018-08-16T10:00:28Z,1534413629,2018,10,0,228.417,228.417,57.286,-6.459,1002.3,13.89,-999.0,yes,yes,no,300234063739730,BD2GI,AOML,CCGS_HUDSON,North
2018-08-16T10:59:31Z,1534417171,2018,11,0,228.458,228.458,57.286,-6.459,1002.6,13.37,-999.0,yes,yes,no,300234063739730,BD2GI,AOML,CCGS_HUDSON,North
2018-08-16T12:00:00Z,1534420800,2018,12,0,228.5,228.5,57.286,-6.459,1003.0,13.84,-999.0,yes,yes,no,300234063739730,BD2GI,AOML,CCGS_HUDSON,North
2018-08-16T13:00:28Z,1534424429,2018,13,0,228.542,228.542,57.286,-6.459,1003.6,14.1,-999.0,yes,yes,no,300234063739730,BD2GI,AOML,CCGS_HUDSON,North
2018-08-16T13:59:31Z,1534427971,2018,14,0,228.583,228.583,57.286,-6.459,1004.1,14.44,-999.0,yes,yes,no,300234063739730,BD2GI,AOML,CCGS_HUDSON,North
2018-08-16T15:00:00Z,1534431600,2018,15,0,228.625,228.625,57.286,-6.459,1004.7,16.14,-999.0,yes,yes,no,300234063739730,BD2GI,AOML,CCGS_HUDSON,North
2018-08-16T16:00:28Z,1534435229,2018,16,0,228.667,228.667,57.286,-6.459,1005.1,13.91,-999.0,yes,yes,no,300234063739730,BD2GI,AOML,CCGS_HUDSON,North
2018-08-16T16:59:31Z,1534438771,2018,17,0,228.708,228.708,57.286,-6.459,1005.4,14.47,-999.0,yes,yes,no,300234063739730,BD2GI,AOML,CCGS_HUDSON,North
2018-08-16T18:00:00Z,1534442400,2018,18,0,228.75,228.75,57.286,-6.459,1005.7,13.65,-999.0,yes,yes,no,300234063739730,BD2GI,AOML,CCGS_HUDSON,North
2018-08-16T19:00:28Z,1534446029,2018,19,0,228.792,228.792,57.286,-6.458,1006.1,13.33,-999.0,yes,yes,no,300234063739730,BD2GI,AOML,CCGS_HUDSON,North
2018-08-16T19:59:31Z,1534449571,2018,20,0,228.833,228.833,57.286,-6.459,1006.6,12.99,-999.0,yes,yes,no,300234063739730,BD2GI,AOML,CCGS_HUDSON,North
2018-08-16T21:00:00Z,1534453200,2018,21,0,228.875,228.875,57.286,-6.459,1007.0,13.17,-999.0,yes,yes,no,300234063739730,BD2GI,AOML,CCGS_HUDSON,North
2018-08-16T22:00:28Z,1534456829,2018,22,0,228.917,228.917,57.286,-6.459,1007.2,14.01,-999.0,yes,yes,no,300234063739730,BD2GI,AOML,CCGS_HUDSON,North
2018-08-16T22:59:31Z,1534460371,2018,23,0,228.958,228.958,57.286,-6.459,1007.4,13.41,-999.0,yes,yes,no,300234063739730,BD2GI,AOML,CCGS_HUDSON,North
2018-08-17T00:00:00Z,1534464000,2018,0,0,229.0,229.0,57.286,-6.459,1007.4,12.97,-999.0,yes,yes,no,300234063739730,BD2GI,AOML,CCGS_HUDSON,North
2018-08-17T01:00:28Z,1534467629,2018,1,0,229.042,229.042,57.286,-6.459,1007.4,12.64,-999.0,yes,yes,no,300234063739730,BD2GI,AOML,CCGS_HUDSON,North
2018-08-17T01:59:31Z,1534471171,2018,2,0,229.083,229.083,57.286,-6.459,1007.7,12.37,-999.0,yes,yes,no,300234063739730,BD2GI,AOML,CCGS_HUDSON,North
2018-08-17T03:00:00Z,1534474800,2018,3,0,229.125,229.125,57.286,-6.459,1007.8,12.32,-999.0,yes,yes,no,300234063739730,BD2GI,AOML,CCGS_HUDSON,North
2018-08-17T04:00:28Z,1534478429,2018,4,0,229.167,229.167,57.286,-6.459,1007.8,12.08,-999.0,yes,yes,no,300234063739730,BD2GI,AOML,CCGS_HUDSON,North
2018-08-17T04:59:31Z,1534481971,2018,5,0,229.208,229.208,57.286,-6.459,1007.9,12.25,-999.0,yes,yes,no,300234063739730,BD2GI,AOML,CCGS_HUDSON,North
2018-08-17T06:00:00Z,1534485600,2018,6,0,229.25,229.25,57.286,-6.459,1007.9,12.25,-999.0,yes,yes,no,300234063739730,BD2GI,AOML,CCGS_HUDSON,North
2018-08-17T07:00:28Z,1534489229,2018,7,0,229.292,229.292,57.286,-6.459,1007.7,12.66,-999.0,yes,yes,no,300234063739730,BD2GI,AOML,CCGS_HUDSON,North
2018-08-17T07:59:31Z,1534492771,2018,8,0,229.333,229.333,57.286,-6.459,1007.4,12.72,-999.0,yes,yes,no,300234063739730,BD2GI,AOML,CCGS_HUDSON,North
2018-08-17T09:00:00Z,1534496400,2018,9,0,229.375,229.375,57.286,-6.459,1006.6,12.73,-999.0,yes,yes,no,300234063739730,BD2GI,AOML,CCGS_HUDSON,North
2018-08-17T10:00:28Z,1534500029,2018,10,0,229.417,229.417,57.286,-6.459,1006.3,13.18,-999.0,yes,yes,no,300234063739730,BD2GI,AOML,CCGS_HUDSON,North
2018-08-17T10:59:31Z,1534503571,2018,11,0,229.458,229.458,57.286,-6.459,1005.6,13.48,-999.0,yes,yes,no,300234063739730,BD2GI,AOML,CCGS_HUDSON,North
2018-08-17T12:00:00Z,1534507200,2018,12,0,229.5,229.5,57.286,-6.459,1005.2,13.43,-999.0,yes,yes,no,300234063739730,BD2GI,AOML,CCGS_HUDSON,North